DECAM EDDN-EDQD

Flight info

Callsign DECAM
Flight time 0h 19m
Altitude 7000
Route ERL2C ERL DCT ANELA VFR DCT EDQD
Aircraft SR22/L-SDGRY/S

Departure

Time 2026-04-29 14:46
Airport Nuremberg Airport (EDDN)

Arrival

Time 2026-04-29 15:06
Airport Bayreuth Airport (EDQD)
Time Latitude Longitude Altitude Speed Heading
2026-04-29 14:28 49.49445 11.06961 1019 ft 0 kts 99°
2026-04-29 14:40 49.49447 11.06972 1019 ft 4 kts 43°
2026-04-29 14:41 49.49477 11.06956 1020 ft 7 kts 311°
2026-04-29 14:41 49.49526 11.06956 1020 ft 12 kts 97°
2026-04-29 14:41 49.49511 11.07107 1020 ft 16 kts 99°
2026-04-29 14:41 49.49563 11.07203 1021 ft 16 kts
2026-04-29 14:42 49.49682 11.07231 1021 ft 19 kts
2026-04-29 14:42 49.49762 11.07087 1018 ft 20 kts 325°
2026-04-29 14:42 49.49851 11.07031 1016 ft 0 kts 341°
2026-04-29 14:45 49.49916 11.07018 1016 ft 16 kts
2026-04-29 14:45 49.49944 11.07066 1018 ft 11 kts 97°
2026-04-29 14:46 49.49895 11.07558 1027 ft 76 kts 98°
2026-04-29 14:46 49.49791 11.08493 1235 ft 95 kts 98°
2026-04-29 14:46 49.49683 11.09512 1635 ft 100 kts 93°
2026-04-29 14:46 49.49592 11.10597 2115 ft 103 kts 94°
2026-04-29 14:47 49.49616 11.11663 2507 ft 101 kts 77°
2026-04-29 14:47 49.49889 11.12698 2799 ft 107 kts 53°
2026-04-29 14:47 49.50500 11.13376 3167 ft 113 kts 27°
2026-04-29 14:47 49.51278 11.13528 3557 ft 114 kts 12°
2026-04-29 14:48 49.52067 11.13629 3935 ft 115 kts 12°
2026-04-29 14:48 49.52875 11.13697 4258 ft 118 kts
2026-04-29 14:48 49.53688 11.13766 4605 ft 116 kts 10°
2026-04-29 14:48 49.54496 11.13848 5002 ft 117 kts 10°
2026-04-29 14:49 49.55302 11.13939 5421 ft 116 kts 11°
2026-04-29 14:49 49.56126 11.14032 5797 ft 121 kts 11°
2026-04-29 14:49 49.56965 11.14122 6195 ft 120 kts 11°
2026-04-29 14:49 49.57808 11.14216 6594 ft 122 kts 11°
2026-04-29 14:50 49.58645 11.14306 6961 ft 122 kts 10°
2026-04-29 14:50 49.59499 11.14401 7261 ft 129 kts 11°
2026-04-29 14:50 49.60471 11.14522 7284 ft 148 kts 10°
2026-04-29 14:50 49.61540 11.14644 7275 ft 158 kts
2026-04-29 14:51 49.62656 11.14762 7280 ft 162 kts
2026-04-29 14:51 49.63794 11.14891 7277 ft 166 kts
2026-04-29 14:51 49.64949 11.15010 7277 ft 167 kts
2026-04-29 14:51 49.66074 11.15395 7268 ft 165 kts 27°
2026-04-29 14:52 49.67126 11.16120 7272 ft 165 kts 25°
2026-04-29 14:52 49.68195 11.16798 7268 ft 166 kts 26°
2026-04-29 14:52 49.69265 11.17491 7271 ft 167 kts 26°
2026-04-29 14:52 49.70328 11.18183 7274 ft 165 kts 26°
2026-04-29 14:53 49.71384 11.18865 7272 ft 164 kts 27°
2026-04-29 14:53 49.72444 11.19553 7275 ft 167 kts 27°
2026-04-29 14:53 49.73498 11.20243 7268 ft 165 kts 26°
2026-04-29 14:53 49.74556 11.20925 7273 ft 165 kts 26°
2026-04-29 14:54 49.75619 11.21621 7275 ft 165 kts 26°
2026-04-29 14:54 49.76650 11.22377 7273 ft 163 kts 36°
2026-04-29 14:54 49.77479 11.23561 7271 ft 163 kts 51°
2026-04-29 14:54 49.78188 11.24944 7273 ft 163 kts 52°
2026-04-29 14:55 49.78904 11.26292 7288 ft 157 kts 53°
2026-04-29 14:55 49.79579 11.27600 6957 ft 162 kts 53°
2026-04-29 14:55 49.80290 11.28964 6730 ft 162 kts 52°
2026-04-29 14:55 49.81000 11.30310 6485 ft 161 kts 52°
2026-04-29 14:56 49.81707 11.31659 6201 ft 161 kts 52°
2026-04-29 14:56 49.82414 11.32997 5967 ft 157 kts 53°
2026-04-29 14:56 49.83277 11.34025 5652 ft 162 kts 27°
2026-04-29 14:56 49.84236 11.34887 5399 ft 159 kts 38°
2026-04-29 14:57 49.85114 11.35843 5292 ft 146 kts 38°
2026-04-29 14:57 49.85925 11.36726 5276 ft 139 kts 38°
2026-04-29 14:57 49.86706 11.37561 5280 ft 133 kts 37°
2026-04-29 14:57 49.87457 11.38357 5276 ft 129 kts 38°
2026-04-29 14:58 49.88179 11.39114 5280 ft 125 kts 37°
2026-04-29 14:58 49.88887 11.39892 5294 ft 126 kts 38°
2026-04-29 14:58 49.89612 11.40679 5277 ft 128 kts 39°
2026-04-29 14:58 49.90152 11.41749 5144 ft 130 kts 69°
2026-04-29 14:59 49.90108 11.43171 5057 ft 140 kts 103°
2026-04-29 14:59 49.89757 11.44606 4925 ft 142 kts 99°
2026-04-29 14:59 49.89538 11.46073 4868 ft 140 kts 98°
2026-04-29 14:59 49.89472 11.47560 4779 ft 140 kts 81°
2026-04-29 15:00 49.89736 11.48996 4674 ft 140 kts 66°
2026-04-29 15:00 49.90144 11.50358 4513 ft 141 kts 64°
2026-04-29 15:00 49.90591 11.51729 4304 ft 145 kts 63°
2026-04-29 15:00 49.91022 11.53179 4012 ft 144 kts 65°
2026-04-29 15:01 49.91437 11.54592 3707 ft 143 kts 65°
2026-04-29 15:01 49.91822 11.56002 3432 ft 139 kts 65°
2026-04-29 15:01 49.92129 11.57403 3184 ft 137 kts 70°
2026-04-29 15:01 49.92417 11.58818 2912 ft 138 kts 70°
2026-04-29 15:02 49.92750 11.60231 2648 ft 141 kts 67°
2026-04-29 15:02 49.93043 11.61628 2586 ft 132 kts 68°
2026-04-29 15:02 49.93354 11.62891 2678 ft 117 kts 65°
2026-04-29 15:02 49.93659 11.64033 2642 ft 117 kts 62°
2026-04-29 15:03 49.94055 11.65123 2707 ft 114 kts 47°
2026-04-29 15:03 49.94776 11.65485 2626 ft 125 kts 352°
2026-04-29 15:03 49.95599 11.64915 2564 ft 136 kts 334°
2026-04-29 15:03 49.96081 11.63611 2451 ft 149 kts 270°
2026-04-29 15:04 49.95916 11.62073 2435 ft 146 kts 259°
2026-04-29 15:04 49.95671 11.60522 2406 ft 147 kts 264°
2026-04-29 15:04 49.95862 11.59185 2424 ft 117 kts 318°
2026-04-29 15:04 49.96546 11.58961 2218 ft 107 kts 28°
2026-04-29 15:05 49.96941 11.59897 2170 ft 105 kts 62°
2026-04-29 15:05 49.97305 11.60874 2020 ft 105 kts 55°
2026-04-29 15:05 49.97667 11.61854 1852 ft 101 kts 55°
2026-04-29 15:05 49.98003 11.62730 1691 ft 87 kts 54°
2026-04-29 15:06 49.98293 11.63475 1624 ft 78 kts 53°
2026-04-29 15:06 49.98531 11.64128 1599 ft 52 kts 67°
2026-04-29 15:06 49.98660 11.64475 1600 ft 11 kts 61°
2026-04-29 15:06 49.98631 11.64456 1601 ft 12 kts 203°
2026-04-29 15:07 49.98566 11.64402 1600 ft 14 kts 239°
2026-04-29 15:07 49.98505 11.64239 1599 ft 19 kts 241°
2026-04-29 15:07 49.98432 11.64045 1599 ft 14 kts 233°
2026-04-29 15:07 49.98374 11.63986 1599 ft 10 kts 231°
2026-04-29 15:08 49.98347 11.63940 1599 ft 0 kts 216°